Weather History for Provincetown, MA

Change the Weather History Date:

Wednesday, April 3, 2013

  Actual Average Record
Temperature  
Mean Temperature 38 °F -  
Max Temperature 44 °F 45 °F 57 °F (1952)
Min Temperature 32 °F 34 °F 22 °F (1951)
Degree Days  
Heating Degree Days 27    
Moisture  
Dew Point 17 °F    
Average Humidity 43    
Maximum Humidity 55    
Minimum Humidity 31    
Precipitation  
Precipitation 0.00 in - - ()
Sea Level Pressure  
Sea Level Pressure 29.99 in    
Wind  
Wind Speed 20 mph (West)    
Max Wind Speed 26 mph    
Max Gust Speed 37 mph    
Visibility 10 miles    
Events      
Averages and records for this station are not official NWS values.
T = Trace of Precipitation, MM = Missing Value Source: NWS Daily Summary

Daily Weather History Graph

Daily Weather History Graph

Search for Another Location

Airport:

Trip Planner

Search our weather history database for the weather conditions in past years. The results will help you decide how hot, cold, wet, or windy it might be!

Date:

Astronomy

Apr. 03, 2013 Rise Set
Actual Time 6:19 AM EDT 7:09 PM EDT
Civil Twilight 5:51 AM EDT 7:37 PM EDT
Nautical Twilight 5:17 AM EDT 8:11 PM EDT
Astronomical Twilight 4:43 AM EDT 8:46 PM EDT
Moon 2:04 AM EDT (4/3) 12:11 PM EDT (4/3)
Length of Visible Light 13h 45m
Length of Day
12h 49m
Last Quarter, 45% of the Moon is Illuminated
Apr 3
Last Quarter
Apr 10
New
Apr 18
First Quarter
Apr 25
Full
May 2
Last Quarter

Hourly Weather History & Observations

Time (EDT) Temp. Windchill Dew Point Humidity Pressure Visibility Wind Dir Wind Speed Gust Speed Precip Events Conditions
12:15 AM 33.8 °F 21.9 °F 15.8 °F 48% 29.96 in 10.0 mi West 21.9 mph 29.9 mph N/A   Clear
12:35 AM 33.8 °F 21.6 °F 15.8 °F 48% 29.96 in 10.0 mi West 23.0 mph 28.8 mph N/A   Clear
12:55 AM 33.8 °F 22.2 °F 15.8 °F 48% 29.96 in 10.0 mi West 20.7 mph 27.6 mph N/A   Clear
1:15 AM 33.8 °F 22.5 °F 17.6 °F 52% 29.96 in 10.0 mi West 19.6 mph 26.5 mph N/A   Clear
1:35 AM 33.8 °F 22.8 °F 17.6 °F 52% 29.96 in 10.0 mi West 18.4 mph 26.5 mph N/A   Scattered Clouds
1:55 AM 33.8 °F 22.5 °F 17.6 °F 52% 29.96 in 10.0 mi West 19.6 mph 35.7 mph N/A   Scattered Clouds
2:15 AM 33.8 °F 21.9 °F 17.6 °F 52% 29.96 in 10.0 mi West 21.9 mph 31.1 mph N/A   Clear
2:35 AM 33.8 °F 20.8 °F 17.6 °F 52% 29.95 in 10.0 mi West 26.5 mph 33.4 mph N/A   Clear
2:55 AM 33.8 °F 22.2 °F 17.6 °F 52% 29.95 in 10.0 mi West 20.7 mph 35.7 mph N/A   Clear
3:15 AM 33.8 °F 21.6 °F 15.8 °F 48% 29.95 in 10.0 mi West 23.0 mph 32.2 mph N/A   Partly Cloudy
3:35 AM 33.8 °F 21.9 °F 15.8 °F 48% 29.95 in 10.0 mi West 21.9 mph 28.8 mph N/A   Scattered Clouds
3:55 AM 33.8 °F 21.9 °F 15.8 °F 48% 29.95 in 10.0 mi West 21.9 mph 32.2 mph N/A   Scattered Clouds
4:15 AM 33.8 °F 22.5 °F 15.8 °F 48% 29.95 in 10.0 mi West 19.6 mph 33.4 mph N/A   Scattered Clouds
4:55 AM 33.8 °F 22.8 °F 17.6 °F 52% 29.95 in 10.0 mi West 18.4 mph 26.5 mph N/A   Scattered Clouds
5:15 AM 32.0 °F 20.5 °F 17.6 °F 55% 29.95 in 10.0 mi West 18.4 mph 28.8 mph N/A   Scattered Clouds
5:35 AM 33.8 °F 22.5 °F 17.6 °F 52% 29.96 in 10.0 mi West 19.6 mph 27.6 mph N/A   Mostly Cloudy
5:55 AM 33.8 °F 22.5 °F 15.8 °F 48% 29.97 in 10.0 mi West 19.6 mph 26.5 mph N/A   Mostly Cloudy
6:15 AM 32.0 °F 20.5 °F 17.6 °F 55% 29.97 in 10.0 mi West 18.4 mph 25.3 mph N/A   Scattered Clouds
6:35 AM 32.0 °F 20.1 °F 15.8 °F 51% 29.98 in 10.0 mi West 19.6 mph 36.8 mph N/A   Partly Cloudy
6:55 AM 32.0 °F 19.5 °F 17.6 °F 55% 29.98 in 10.0 mi West 21.9 mph 29.9 mph N/A   Partly Cloudy
7:15 AM 33.8 °F 23.2 °F 15.8 °F 48% 29.99 in 10.0 mi West 17.3 mph 27.6 mph N/A   Partly Cloudy
7:35 AM 33.8 °F 21.9 °F 14.0 °F 44% 30.00 in 10.0 mi West 21.9 mph 29.9 mph N/A   Clear
7:55 AM 33.8 °F 22.2 °F 15.8 °F 48% 30.00 in 10.0 mi West 20.7 mph 28.8 mph N/A   Clear
8:15 AM 33.8 °F 22.5 °F 14.0 °F 44% 30.00 in 10.0 mi West 19.6 mph 28.8 mph N/A   Clear
8:35 AM 33.8 °F 22.2 °F 15.8 °F 48% 30.00 in 10.0 mi West 20.7 mph 27.6 mph N/A   Clear
8:55 AM 35.6 °F 24.0 °F 14.0 °F 41% 29.99 in 10.0 mi West 23.0 mph 28.8 mph N/A   Clear
9:15 AM 35.6 °F 24.0 °F 12.2 °F 38% 29.99 in 10.0 mi West 23.0 mph 29.9 mph N/A   Clear
9:35 AM 35.6 °F 25.2 °F 14.0 °F 41% 29.98 in 10.0 mi West 18.4 mph 27.6 mph N/A   Clear
9:55 AM 35.6 °F 24.5 °F 14.0 °F 41% 29.99 in 10.0 mi West 20.7 mph 31.1 mph N/A   Clear
10:15 AM 37.4 °F 27.2 °F 14.0 °F 38% 29.99 in 10.0 mi West 19.6 mph 28.8 mph N/A   Clear
10:35 AM 37.4 °F 26.6 °F 12.2 °F 36% 29.98 in 10.0 mi West 21.9 mph 28.8 mph N/A   Clear
10:55 AM 37.4 °F 27.5 °F 14.0 °F 38% 29.98 in 10.0 mi West 18.4 mph 25.3 mph N/A   Clear
11:15 AM 37.4 °F 26.6 °F 14.0 °F 38% 29.98 in 10.0 mi West 21.9 mph 29.9 mph N/A   Clear
11:35 AM 39.2 °F 29.0 °F 14.0 °F 36% 29.98 in 10.0 mi West 21.9 mph 31.1 mph N/A   Clear
11:55 AM 39.2 °F 29.6 °F 15.8 °F 39% 29.97 in 10.0 mi West 19.6 mph 31.1 mph N/A   Clear
12:15 PM 41.0 °F 31.6 °F 17.6 °F 39% 29.97 in 10.0 mi West 20.7 mph 27.6 mph N/A   Clear
12:35 PM 42.8 °F 34.8 °F 17.6 °F 36% 29.96 in 10.0 mi West 17.3 mph 24.2 mph N/A   Clear
12:55 PM 42.8 °F 34.3 °F 15.8 °F 34% 29.96 in 10.0 mi West 19.6 mph 25.3 mph N/A   Clear
1:15 PM 42.8 °F 34.5 °F 15.8 °F 34% 29.96 in 10.0 mi West 18.4 mph 21.9 mph N/A   Clear
1:35 PM 42.8 °F 34.5 °F 17.6 °F 36% 29.96 in 10.0 mi West 18.4 mph 26.5 mph N/A   Clear
1:55 PM 44.6 °F 36.9 °F 15.8 °F 31% 29.96 in 10.0 mi West 18.4 mph - N/A   Clear
2:15 PM 42.8 °F 34.3 °F 15.8 °F 34% 29.96 in 10.0 mi WNW 19.6 mph 26.5 mph N/A   Clear
2:35 PM 44.6 °F 36.6 °F 17.6 °F 34% 29.96 in 10.0 mi WNW 19.6 mph 26.5 mph N/A   Clear
2:55 PM 44.6 °F 36.6 °F 17.6 °F 34% 29.95 in 10.0 mi WNW 19.6 mph 25.3 mph N/A   Clear
3:15 PM 44.6 °F 36.4 °F 17.6 °F 34% 29.95 in 10.0 mi West 20.7 mph 25.3 mph N/A   Clear
3:35 PM 44.6 °F 37.4 °F 19.4 °F 37% 29.95 in 10.0 mi WNW 16.1 mph 23.0 mph N/A   Clear
3:55 PM 44.6 °F 37.2 °F 19.4 °F 37% 29.94 in 10.0 mi WNW 17.3 mph - N/A   Clear
4:15 PM 44.6 °F 36.9 °F 19.4 °F 37% 29.95 in 10.0 mi WNW 18.4 mph 23.0 mph N/A   Clear
4:35 PM 44.6 °F 37.4 °F 17.6 °F 34% 29.95 in 10.0 mi WNW 16.1 mph - N/A   Clear
4:55 PM 44.6 °F 38.1 °F 24.8 °F 46% 29.96 in 10.0 mi WNW 13.8 mph 19.6 mph N/A   Clear
5:15 PM 44.6 °F 37.4 °F 19.4 °F 37% 29.95 in 10.0 mi WNW 16.1 mph - N/A   Clear
5:35 PM 44.6 °F 38.1 °F 21.2 °F 39% 29.96 in 10.0 mi West 13.8 mph - N/A   Clear
5:55 PM 44.6 °F 38.1 °F 17.6 °F 34% 29.96 in 10.0 mi West 13.8 mph 24.2 mph N/A   Clear
6:15 PM 42.8 °F 35.1 °F 21.2 °F 42% 29.97 in 10.0 mi West 16.1 mph 21.9 mph N/A   Clear
6:35 PM 42.8 °F 35.1 °F 19.4 °F 39% 29.98 in 10.0 mi West 16.1 mph 20.7 mph N/A   Clear
6:55 PM 42.8 °F 34.5 °F 19.4 °F 39% 29.99 in 10.0 mi West 18.4 mph 24.2 mph N/A   Clear
7:15 PM 41.0 °F 32.8 °F 19.4 °F 42% 30.01 in 10.0 mi West 16.1 mph 21.9 mph N/A   Clear
7:35 PM 41.0 °F 31.9 °F 21.2 °F 45% 30.01 in 10.0 mi West 19.6 mph 23.0 mph N/A   Clear
7:55 PM 41.0 °F 32.8 °F 19.4 °F 42% 30.03 in 10.0 mi West 16.1 mph 23.0 mph N/A   Clear
8:15 PM 41.0 °F 32.5 °F 19.4 °F 42% 30.04 in 10.0 mi West 17.3 mph 25.3 mph N/A   Clear
8:35 PM 39.2 °F 29.6 °F 19.4 °F 45% 30.05 in 10.0 mi West 19.6 mph 27.6 mph N/A   Clear
8:55 PM 39.2 °F 29.3 °F 19.4 °F 45% 30.07 in 10.0 mi West 20.7 mph 28.8 mph N/A   Clear
9:15 PM 39.2 °F 29.6 °F 19.4 °F 45% 30.08 in 10.0 mi West 19.6 mph 27.6 mph N/A   Clear
9:35 PM 39.2 °F 29.6 °F 19.4 °F 45% 30.08 in 10.0 mi West 19.6 mph 31.1 mph N/A   Clear
9:55 PM 39.2 °F 29.0 °F 19.4 °F 45% 30.09 in 10.0 mi West 21.9 mph 33.4 mph N/A   Clear
10:15 PM 37.4 °F 26.9 °F 17.6 °F 45% 30.10 in 10.0 mi West 20.7 mph 27.6 mph N/A   Clear
10:35 PM 37.4 °F 26.6 °F 17.6 °F 45% 30.10 in 10.0 mi West 21.9 mph 31.1 mph N/A   Clear
10:55 PM 37.4 °F 26.4 °F 17.6 °F 45% 30.11 in 10.0 mi West 23.0 mph 28.8 mph N/A   Clear
11:15 PM 37.4 °F 25.9 °F 17.6 °F 45% 30.12 in 10.0 mi West 25.3 mph 31.1 mph N/A   Clear
11:35 PM 37.4 °F 26.4 °F 19.4 °F 48% 30.13 in 10.0 mi West 23.0 mph 29.9 mph N/A   Clear
11:55 PM 35.6 °F 24.0 °F 19.4 °F 52% 30.14 in 10.0 mi WNW 23.0 mph 32.2 mph N/A   Clear